Wetterdaten: Samstag, 15.08.2015
Datum Zeit Auen-Temp. Temp gefhlt Luftfeuchte Luftdruck Regen Wind Richtung Richtung Taupunkt Windben
15.08.2015 00:00 15,4 C 15,3 C 87 % 1007,4 hPa 0,0 mm 0,3 km/h (0 Bft) S-SW 202 13,2 C 0,0 km/h (0 Bft)
15.08.2015 00:05 15,3 C 15,2 C 87 % 1007,4 hPa 0,0 mm 0,0 km/h (0 Bft) O-SO 112 13,1 C 0,0 km/h (0 Bft)
15.08.2015 00:10 15,2 C 15,1 C 88 % 1007,4 hPa 0,0 mm 0,0 km/h (0 Bft) SO 135 13,2 C 0,0 km/h (0 Bft)
15.08.2015 00:15 15,2 C 15,1 C 88 % 1007,2 hPa 0,0 mm 0,3 km/h (0 Bft) S-SO 157 13,2 C 3,1 km/h (1 Bft)
15.08.2015 00:20 15,2 C 15,1 C 88 % 1007,2 hPa 0,0 mm 1,0 km/h (0 Bft) SW 225 13,2 C 3,4 km/h (1 Bft)
15.08.2015 00:25 15,2 C 15,1 C 88 % 1007,2 hPa 0,0 mm 1,3 km/h (1 Bft) S 180 13,2 C 0,0 km/h (0 Bft)
15.08.2015 00:30 15,1 C 15,0 C 88 % 1007,2 hPa 0,0 mm 0,5 km/h (0 Bft) S 180 13,1 C 5,7 km/h (1 Bft)
15.08.2015 00:35 15,1 C 15,0 C 88 % 1007,1 hPa 0,0 mm 2,1 km/h (1 Bft) S 180 13,1 C 7,8 km/h (2 Bft)
15.08.2015 00:40 15,2 C 15,1 C 88 % 1007,1 hPa 0,0 mm 3,9 km/h (1 Bft) SO 135 13,2 C 11,7 km/h (2 Bft)
15.08.2015 00:45 15,2 C 15,1 C 88 % 1007,1 hPa 0,0 mm 2,6 km/h (1 Bft) O-SO 112 13,2 C 0,0 km/h (0 Bft)
15.08.2015 00:50 15,2 C 15,1 C 88 % 1007,1 hPa 0,0 mm 0,8 km/h (0 Bft) S 180 13,2 C 3,4 km/h (1 Bft)
15.08.2015 00:55 15,2 C 15,1 C 88 % 1007,4 hPa 0,0 mm 1,6 km/h (1 Bft) W-SW 247 13,2 C 2,8 km/h (1 Bft)
15.08.2015 01:00 15,2 C 15,1 C 88 % 1007,4 hPa 0,0 mm 1,0 km/h (0 Bft) W-SW 247 13,2 C 0,0 km/h (0 Bft)
15.08.2015 01:05 15,1 C 15,0 C 88 % 1007,4 hPa 0,0 mm 1,3 km/h (1 Bft) SW 225 13,1 C 3,4 km/h (1 Bft)
15.08.2015 01:10 15,0 C 14,9 C 88 % 1007,4 hPa 0,7 mm 3,6 km/h (1 Bft) W-SW 247 13,0 C 5,2 km/h (1 Bft)
15.08.2015 01:15 15,0 C 14,9 C 88 % 1007,9 hPa 0,0 mm 4,9 km/h (1 Bft) S-SO 157 13,0 C 12,2 km/h (2 Bft)
15.08.2015 01:20 15,0 C 14,9 C 88 % 1007,9 hPa 0,7 mm 4,7 km/h (1 Bft) O 90 13,0 C 0,0 km/h (0 Bft)
15.08.2015 01:25 14,9 C 14,8 C 88 % 1007,9 hPa 0,0 mm 6,7 km/h (2 Bft) O-NO 67 12,9 C 13,2 km/h (3 Bft)
15.08.2015 01:30 14,8 C 14,7 C 88 % 1007,9 hPa 0,7 mm 6,5 km/h (2 Bft) N 360 12,8 C 16,3 km/h (3 Bft)
15.08.2015 01:35 14,8 C 14,7 C 88 % 1006,9 hPa 0,0 mm 3,6 km/h (1 Bft) O-NO 67 12,8 C 0,0 km/h (0 Bft)
15.08.2015 01:40 14,8 C 14,7 C 88 % 1006,9 hPa 0,0 mm 0,8 km/h (0 Bft) SO 135 12,8 C 4,9 km/h (1 Bft)
15.08.2015 01:45 14,7 C 14,6 C 88 % 1006,9 hPa 0,0 mm 0,3 km/h (0 Bft) W-SW 247 12,7 C 0,0 km/h (0 Bft)
15.08.2015 01:50 14,7 C 14,6 C 88 % 1006,9 hPa 0,0 mm 0,3 km/h (0 Bft) N-NO 22 12,7 C 0,0 km/h (0 Bft)
15.08.2015 01:55 14,8 C 14,7 C 88 % 1006,4 hPa 0,0 mm 2,1 km/h (1 Bft) W 270 12,8 C 2,8 km/h (1 Bft)
15.08.2015 02:00 14,8 C 14,7 C 88 % 1006,4 hPa 0,7 mm 4,4 km/h (1 Bft) SO 135 12,8 C 10,1 km/h (2 Bft)
15.08.2015 02:05 14,7 C 14,6 C 88 % 1006,4 hPa 0,0 mm 5,7 km/h (1 Bft) W-NW 292 12,7 C 7,5 km/h (2 Bft)
15.08.2015 02:10 14,6 C 14,5 C 88 % 1006,4 hPa 0,0 mm 5,7 km/h (1 Bft) NW 315 12,6 C 4,1 km/h (1 Bft)
15.08.2015 02:15 14,5 C 14,4 C 88 % 1006,5 hPa 0,0 mm 2,6 km/h (1 Bft) SO 135 12,5 C 0,0 km/h (0 Bft)
15.08.2015 02:20 14,5 C 14,3 C 88 % 1006,5 hPa 0,0 mm 2,3 km/h (1 Bft) O-NO 67 12,5 C 10,1 km/h (2 Bft)
15.08.2015 02:25 14,5 C 14,3 C 88 % 1006,5 hPa 0,0 mm 4,7 km/h (1 Bft) W-SW 247 12,5 C 3,6 km/h (1 Bft)
15.08.2015 02:30 14,6 C 14,5 C 89 % 1006,5 hPa 0,0 mm 5,4 km/h (1 Bft) N-NO 22 12,8 C 10,9 km/h (2 Bft)
15.08.2015 02:35 14,7 C 14,6 C 89 % 1006,1 hPa 0,0 mm 4,4 km/h (1 Bft) S-SW 202 12,9 C 10,1 km/h (2 Bft)
15.08.2015 02:40 14,7 C 14,6 C 89 % 1006,1 hPa 0,0 mm 4,4 km/h (1 Bft) N 360 12,9 C 3,4 km/h (1 Bft)
15.08.2015 02:45 14,6 C 14,5 C 89 % 1006,1 hPa 0,0 mm 2,6 km/h (1 Bft) W 270 12,8 C 6,7 km/h (2 Bft)
15.08.2015 02:50 14,5 C 14,4 C 89 % 1006,1 hPa 0,0 mm 1,6 km/h (1 Bft) W 270 12,7 C 0,0 km/h (0 Bft)
15.08.2015 02:55 14,4 C 14,3 C 88 % 1006,2 hPa 0,0 mm 1,3 km/h (1 Bft) SW 225 12,4 C 0,0 km/h (0 Bft)
15.08.2015 03:00 14,3 C 14,2 C 88 % 1006,2 hPa 0,0 mm 0,0 km/h (0 Bft) SW 225 12,3 C 0,0 km/h (0 Bft)
15.08.2015 03:05 14,2 C 14,1 C 88 % 1006,2 hPa 0,0 mm 0,0 km/h (0 Bft) S-SO 157 12,2 C 0,0 km/h (0 Bft)
15.08.2015 03:10 14,2 C 14,1 C 88 % 1006,2 hPa 0,0 mm 0,5 km/h (0 Bft) S-SW 202 12,2 C 2,6 km/h (1 Bft)
15.08.2015 03:15 14,2 C 14,1 C 88 % 1006,2 hPa 0,0 mm 1,6 km/h (1 Bft) S 180 12,2 C 4,1 km/h (1 Bft)
15.08.2015 03:20 14,2 C 14,1 C 88 % 1006,2 hPa 0,0 mm 2,3 km/h (1 Bft) W-SW 247 12,2 C 0,0 km/h (0 Bft)
15.08.2015 03:25 14,2 C 14,1 C 88 % 1006,2 hPa 0,0 mm 1,6 km/h (1 Bft) S 180 12,2 C 4,4 km/h (1 Bft)
15.08.2015 03:30 14,2 C 14,1 C 88 % 1006,2 hPa 0,0 mm 1,6 km/h (1 Bft) W-SW 247 12,2 C 3,4 km/h (1 Bft)
15.08.2015 03:35 14,2 C 14,1 C 88 % 1006,6 hPa 0,0 mm 2,1 km/h (1 Bft) W-SW 247 12,2 C 6,0 km/h (2 Bft)
15.08.2015 03:40 14,2 C 14,1 C 88 % 1006,6 hPa 0,0 mm 1,8 km/h (1 Bft) W-SW 247 12,2 C 0,0 km/h (0 Bft)
15.08.2015 03:45 14,0 C 13,9 C 88 % 1006,6 hPa 0,0 mm 1,0 km/h (0 Bft) S-SW 202 12,0 C 0,0 km/h (0 Bft)
15.08.2015 03:50 14,0 C 13,9 C 88 % 1006,6 hPa 0,0 mm 0,0 km/h (0 Bft) S-SW 202 12,0 C 0,0 km/h (0 Bft)
15.08.2015 03:55 13,9 C 13,8 C 89 % 1006,4 hPa 0,0 mm 0,0 km/h (0 Bft) S-SW 202 12,1 C 0,0 km/h (0 Bft)
15.08.2015 04:00 14,0 C 13,9 C 88 % 1006,4 hPa 0,0 mm 0,5 km/h (0 Bft) S 180 12,0 C 0,0 km/h (0 Bft)
15.08.2015 04:05 14,0 C 13,9 C 88 % 1006,4 hPa 0,0 mm 0,8 km/h (0 Bft) S 180 12,0 C 0,0 km/h (0 Bft)
15.08.2015 04:10 14,0 C 13,9 C 88 % 1006,4 hPa 0,0 mm 0,3 km/h (0 Bft) S 180 12,0 C 0,0 km/h (0 Bft)
15.08.2015 04:15 14,1 C 14,0 C 89 % 1006,6 hPa 0,0 mm 0,3 km/h (0 Bft) S-SW 202 12,3 C 4,1 km/h (1 Bft)
15.08.2015 04:20 14,1 C 14,0 C 89 % 1006,6 hPa 0,0 mm 0,8 km/h (0 Bft) W-SW 247 12,3 C 0,0 km/h (0 Bft)
15.08.2015 04:25 14,2 C 14,1 C 89 % 1006,6 hPa 0,0 mm 1,3 km/h (1 Bft) SW 225 12,4 C 3,6 km/h (1 Bft)
15.08.2015 04:30 14,2 C 14,1 C 89 % 1006,6 hPa 0,0 mm 1,3 km/h (1 Bft) S-SO 157 12,4 C 0,0 km/h (0 Bft)
15.08.2015 04:35 14,0 C 14,0 C 89 % 1006,5 hPa 0,0 mm 0,8 km/h (0 Bft) S-SO 157 12,2 C 0,0 km/h (0 Bft)
15.08.2015 04:40 13,9 C 13,8 C 89 % 1006,5 hPa 0,0 mm 0,0 km/h (0 Bft) S-SO 157 12,1 C 0,0 km/h (0 Bft)
15.08.2015 04:45 13,8 C 13,7 C 89 % 1006,5 hPa 0,0 mm 0,0 km/h (0 Bft) S-SO 157 12,0 C 0,0 km/h (0 Bft)
15.08.2015 04:50 13,6 C 13,6 C 89 % 1006,5 hPa 0,0 mm 0,0 km/h (0 Bft) W-SW 247 11,8 C 0,0 km/h (0 Bft)
15.08.2015 04:55 13,6 C 13,5 C 89 % 1006,6 hPa 0,0 mm 0,0 km/h (0 Bft) S 180 11,8 C 0,0 km/h (0 Bft)
15.08.2015 05:00 13,7 C 13,6 C 89 % 1006,6 hPa 0,0 mm 0,0 km/h (0 Bft) S 180 11,9 C 0,0 km/h (0 Bft)
15.08.2015 05:05 13,7 C 13,6 C 89 % 1006,6 hPa 0,0 mm 0,0 km/h (0 Bft) W-SW 247 11,9 C 0,0 km/h (0 Bft)
15.08.2015 05:10 13,7 C 13,6 C 89 % 1006,6 hPa 0,0 mm 0,0 km/h (0 Bft) W-SW 247 11,9 C 0,0 km/h (0 Bft)
15.08.2015 05:15 13,8 C 13,7 C 89 % 1006,5 hPa 0,0 mm 0,5 km/h (0 Bft) SO 135 12,0 C 0,0 km/h (0 Bft)
15.08.2015 05:20 13,8 C 13,7 C 89 % 1006,5 hPa 0,0 mm 0,5 km/h (0 Bft) S 180 12,0 C 0,0 km/h (0 Bft)
15.08.2015 05:21 13,8 C 13,7 C 89 % 1006,5 hPa 0,0 mm 0,0 km/h (0 Bft) W-SW 247 12,0 C 0,0 km/h (0 Bft)
15.08.2015 05:26 13,8 C 13,7 C 89 % 1006,5 hPa 0,0 mm 0,0 km/h (0 Bft) SO 135 12,0 C 0,0 km/h (0 Bft)
15.08.2015 05:30 13,8 C 13,7 C 89 % 1006,5 hPa 0,0 mm 0,0 km/h (0 Bft) SO 135 12,0 C 0,0 km/h (0 Bft)
15.08.2015 05:35 13,8 C 13,7 C 89 % 1006,4 hPa 0,0 mm 0,3 km/h (0 Bft) W 270 12,0 C 4,1 km/h (1 Bft)
15.08.2015 05:40 13,9 C 13,8 C 89 % 1006,4 hPa 0,0 mm 0,3 km/h (0 Bft) O-SO 112 12,1 C 0,0 km/h (0 Bft)
15.08.2015 05:45 13,7 C 13,6 C 89 % 1006,4 hPa 0,0 mm 0,5 km/h (0 Bft) W-SW 247 11,9 C 4,4 km/h (1 Bft)
15.08.2015 05:50 13,7 C 13,6 C 89 % 1006,4 hPa 0,0 mm 0,3 km/h (0 Bft) SO 135 11,9 C 0,0 km/h (0 Bft)
15.08.2015 05:55 13,8 C 13,7 C 89 % 1006,4 hPa 0,0 mm 0,3 km/h (0 Bft) SO 135 12,0 C 0,0 km/h (0 Bft)
15.08.2015 06:00 13,8 C 13,7 C 89 % 1006,4 hPa 0,0 mm 1,3 km/h (1 Bft) S-SO 157 12,0 C 3,6 km/h (1 Bft)
15.08.2015 06:05 13,8 C 13,7 C 89 % 1006,4 hPa 0,0 mm 1,3 km/h (1 Bft) S-SO 157 12,0 C 0,0 km/h (0 Bft)
15.08.2015 06:10 13,8 C 13,7 C 89 % 1006,4 hPa 0,0 mm 1,6 km/h (1 Bft) SO 135 12,0 C 0,0 km/h (0 Bft)
15.08.2015 06:15 13,7 C 13,6 C 89 % 1006,3 hPa 0,0 mm 1,8 km/h (1 Bft) SO 135 11,9 C 0,0 km/h (0 Bft)
15.08.2015 06:20 13,6 C 13,5 C 89 % 1006,3 hPa 0,0 mm 0,5 km/h (0 Bft) SW 225 11,8 C 2,8 km/h (1 Bft)
15.08.2015 06:25 13,5 C 13,4 C 89 % 1006,3 hPa 0,0 mm 0,0 km/h (0 Bft) SO 135 11,7 C 0,0 km/h (0 Bft)
15.08.2015 06:30 13,5 C 13,4 C 89 % 1006,3 hPa 0,0 mm 0,0 km/h (0 Bft) O-SO 112 11,7 C 0,0 km/h (0 Bft)
15.08.2015 06:35 13,6 C 13,5 C 89 % 1006,4 hPa 0,0 mm 0,0 km/h (0 Bft) O-NO 67 11,8 C 0,0 km/h (0 Bft)
15.08.2015 06:40 13,7 C 13,6 C 89 % 1006,4 hPa 0,0 mm 0,0 km/h (0 Bft) W-SW 247 11,9 C 0,0 km/h (0 Bft)
15.08.2015 06:45 13,7 C 13,6 C 89 % 1006,4 hPa 0,0 mm 0,0 km/h (0 Bft) NW 315 11,9 C 0,0 km/h (0 Bft)
15.08.2015 06:50 13,9 C 13,8 C 90 % 1006,4 hPa 0,0 mm 0,0 km/h (0 Bft) O 90 12,3 C 0,0 km/h (0 Bft)
15.08.2015 06:55 13,9 C 13,8 C 90 % 1006,5 hPa 0,0 mm 0,0 km/h (0 Bft) NO 45 12,3 C 0,0 km/h (0 Bft)
15.08.2015 07:00 14,0 C 14,0 C 87 % 1006,5 hPa 0,0 mm 0,3 km/h (0 Bft) W-NW 292 11,9 C 0,0 km/h (0 Bft)
15.08.2015 07:05 14,1 C 14,1 C 89 % 1006,5 hPa 0,0 mm 0,3 km/h (0 Bft) O 90 12,3 C 0,0 km/h (0 Bft)
15.08.2015 07:10 14,2 C 14,1 C 90 % 1006,5 hPa 0,0 mm 0,0 km/h (0 Bft) SO 135 12,6 C 0,0 km/h (0 Bft)
15.08.2015 07:15 14,2 C 14,2 C 87 % 1006,6 hPa 0,0 mm 0,0 km/h (0 Bft) W-SW 247 12,1 C 0,0 km/h (0 Bft)
15.08.2015 07:20 14,3 C 14,3 C 87 % 1006,6 hPa 0,0 mm 0,0 km/h (0 Bft) S 180 12,2 C 0,0 km/h (0 Bft)
15.08.2015 07:25 14,3 C 14,4 C 87 % 1006,6 hPa 0,0 mm 0,0 km/h (0 Bft) W-NW 292 12,2 C 0,0 km/h (0 Bft)
15.08.2015 07:30 14,4 C 14,4 C 87 % 1006,6 hPa 0,0 mm 0,0 km/h (0 Bft) W-NW 292 12,3 C 0,0 km/h (0 Bft)
15.08.2015 07:35 14,4 C 14,5 C 87 % 1006,6 hPa 0,0 mm 0,0 km/h (0 Bft) W-NW 292 12,3 C 0,0 km/h (0 Bft)
15.08.2015 07:40 14,5 C 14,5 C 87 % 1006,6 hPa 0,0 mm 0,3 km/h (0 Bft) W-SW 247 12,4 C 3,9 km/h (1 Bft)
15.08.2015 07:45 14,5 C 14,6 C 87 % 1006,6 hPa 0,0 mm 0,3 km/h (0 Bft) O-SO 112 12,4 C 0,0 km/h (0 Bft)
15.08.2015 07:50 14,6 C 14,7 C 87 % 1006,6 hPa 0,0 mm 0,3 km/h (0 Bft) SO 135 12,5 C 0,0 km/h (0 Bft)
15.08.2015 07:55 14,7 C 14,7 C 89 % 1007,0 hPa 0,0 mm 0,0 km/h (0 Bft) O-SO 112 12,9 C 0,0 km/h (0 Bft)
15.08.2015 08:00 14,7 C 14,8 C 87 % 1007,0 hPa 0,0 mm 0,3 km/h (0 Bft) S-SO 157 12,6 C 3,6 km/h (1 Bft)
15.08.2015 08:05 14,8 C 14,8 C 87 % 1007,0 hPa 0,0 mm 0,3 km/h (0 Bft) S 180 12,7 C 0,0 km/h (0 Bft)
15.08.2015 08:10 14,8 C 14,9 C 87 % 1007,0 hPa 0,0 mm 0,8 km/h (0 Bft) SW 225 12,7 C 0,0 km/h (0 Bft)
15.08.2015 08:15 14,8 C 15,0 C 87 % 1006,9 hPa 0,0 mm 0,5 km/h (0 Bft) S-SO 157 12,7 C 0,0 km/h (0 Bft)
15.08.2015 08:20 14,9 C 15,1 C 87 % 1006,9 hPa 0,0 mm 0,8 km/h (0 Bft) S 180 12,8 C 4,1 km/h (1 Bft)
15.08.2015 08:25 14,9 C 15,2 C 87 % 1006,9 hPa 0,0 mm 1,0 km/h (0 Bft) S 180 12,8 C 0,0 km/h (0 Bft)
15.08.2015 08:30 15,0 C 15,4 C 87 % 1006,9 hPa 0,0 mm 1,3 km/h (1 Bft) S 180 12,9 C 4,4 km/h (1 Bft)
15.08.2015 08:35 15,1 C 15,6 C 87 % 1006,9 hPa 0,0 mm 1,3 km/h (1 Bft) S-SO 157 13,0 C 0,0 km/h (0 Bft)
15.08.2015 08:40 15,2 C 16,0 C 87 % 1006,9 hPa 0,0 mm 1,0 km/h (0 Bft) S-SO 157 13,0 C 0,0 km/h (0 Bft)
15.08.2015 08:45 15,3 C 16,4 C 87 % 1006,9 hPa 0,0 mm 0,8 km/h (0 Bft) SO 135 13,1 C 0,0 km/h (0 Bft)
15.08.2015 08:50 15,5 C 16,9 C 87 % 1006,9 hPa 0,0 mm 0,5 km/h (0 Bft) S-SW 202 13,3 C 3,4 km/h (1 Bft)
15.08.2015 08:55 15,6 C 17,1 C 87 % 1006,9 hPa 0,0 mm 0,3 km/h (0 Bft) S 180 13,4 C 2,6 km/h (1 Bft)
15.08.2015 09:00 15,7 C 17,4 C 87 % 1006,9 hPa 0,0 mm 1,8 km/h (1 Bft) SW 225 13,5 C 0,0 km/h (0 Bft)
15.08.2015 09:05 16,0 C 17,8 C 86 % 1006,9 hPa 0,0 mm 1,8 km/h (1 Bft) W-SW 247 13,7 C 4,1 km/h (1 Bft)
15.08.2015 09:10 16,3 C 18,6 C 86 % 1006,9 hPa 0,0 mm 0,5 km/h (0 Bft) S 180 14,0 C 2,8 km/h (1 Bft)
15.08.2015 09:15 16,5 C 19,0 C 86 % 1007,0 hPa 0,0 mm 0,3 km/h (0 Bft) NO 45 14,1 C 0,0 km/h (0 Bft)
15.08.2015 09:20 16,8 C 19,4 C 86 % 1007,0 hPa 0,0 mm 0,5 km/h (0 Bft) SW 225 14,4 C 6,0 km/h (2 Bft)
15.08.2015 09:25 16,9 C 19,6 C 85 % 1007,0 hPa 0,0 mm 0,5 km/h (0 Bft) W-SW 247 14,4 C 0,0 km/h (0 Bft)
15.08.2015 09:30 17,2 C 20,2 C 85 % 1007,0 hPa 0,0 mm 1,0 km/h (0 Bft) W-SW 247 14,7 C 0,0 km/h (0 Bft)
15.08.2015 09:35 17,3 C 20,6 C 85 % 1007,0 hPa 0,0 mm 0,5 km/h (0 Bft) W-NW 292 14,8 C 0,0 km/h (0 Bft)
15.08.2015 09:40 17,5 C 21,2 C 84 % 1007,0 hPa 0,0 mm 1,8 km/h (1 Bft) W 270 14,8 C 6,2 km/h (2 Bft)
15.08.2015 09:45 17,7 C 21,2 C 83 % 1007,0 hPa 0,0 mm 2,8 km/h (1 Bft) NW 315 14,8 C 4,9 km/h (1 Bft)
15.08.2015 09:50 17,8 C 21,0 C 83 % 1007,0 hPa 0,0 mm 3,9 km/h (1 Bft) O 90 14,9 C 3,4 km/h (1 Bft)
15.08.2015 09:55 17,9 C 21,0 C 82 % 1006,9 hPa 0,0 mm 4,1 km/h (1 Bft) W 270 14,8 C 15,0 km/h (3 Bft)
15.08.2015 10:00 17,9 C 21,0 C 82 % 1006,9 hPa 0,0 mm 3,6 km/h (1 Bft) W-SW 247 14,8 C 7,5 km/h (2 Bft)
15.08.2015 10:05 18,0 C 21,0 C 81 % 1006,9 hPa 0,0 mm 4,1 km/h (1 Bft) S 180 14,7 C 4,7 km/h (1 Bft)
15.08.2015 10:10 18,0 C 21,2 C 80 % 1006,9 hPa 0,0 mm 2,3 km/h (1 Bft) W-NW 292 14,5 C 3,6 km/h (1 Bft)
15.08.2015 10:15 18,3 C 21,8 C 80 % 1007,4 hPa 0,0 mm 1,8 km/h (1 Bft) W 270 14,8 C 0,0 km/h (0 Bft)
15.08.2015 10:20 18,5 C 22,6 C 80 % 1007,4 hPa 0,0 mm 2,3 km/h (1 Bft) W-NW 292 15,0 C 5,4 km/h (1 Bft)
15.08.2015 10:25 18,8 C 22,8 C 79 % 1007,4 hPa 0,0 mm 2,3 km/h (1 Bft) N 360 15,1 C 4,4 km/h (1 Bft)
15.08.2015 10:30 18,8 C 23,7 C 79 % 1007,4 hPa 0,0 mm 3,6 km/h (1 Bft) W 270 15,1 C 3,1 km/h (1 Bft)
15.08.2015 10:35 19,0 C 23,4 C 78 % 1007,6 hPa 0,0 mm 4,9 km/h (1 Bft) W-SW 247 15,1 C 6,7 km/h (2 Bft)
15.08.2015 10:40 19,0 C 22,8 C 78 % 1007,6 hPa 0,0 mm 5,2 km/h (1 Bft) N-NW 337 15,1 C 8,0 km/h (2 Bft)
15.08.2015 10:45 19,1 C 22,9 C 78 % 1007,6 hPa 0,0 mm 5,2 km/h (1 Bft) W-NW 292 15,2 C 7,0 km/h (2 Bft)
15.08.2015 10:50 19,3 C 23,6 C 77 % 1007,6 hPa 0,0 mm 5,4 km/h (1 Bft) W 270 15,2 C 0,0 km/h (0 Bft)
15.08.2015 10:55 19,9 C 25,1 C 77 % 1007,6 hPa 0,0 mm 4,9 km/h (1 Bft) NW 315 15,7 C 7,5 km/h (2 Bft)
15.08.2015 11:00 20,0 C 25,4 C 75 % 1007,6 hPa 0,0 mm 6,2 km/h (2 Bft) W-SW 247 15,4 C 18,6 km/h (3 Bft)
15.08.2015 11:05 19,7 C 24,2 C 75 % 1007,6 hPa 0,0 mm 7,8 km/h (2 Bft) SW 225 15,1 C 7,3 km/h (2 Bft)
15.08.2015 11:10 20,1 C 25,1 C 74 % 1007,6 hPa 0,0 mm 6,7 km/h (2 Bft) N-NW 337 15,3 C 6,2 km/h (2 Bft)
15.08.2015 11:15 20,3 C 25,7 C 73 % 1007,9 hPa 0,0 mm 5,2 km/h (1 Bft) SW 225 15,3 C 7,5 km/h (2 Bft)
15.08.2015 11:20 20,6 C 26,7 C 72 % 1007,9 hPa 0,0 mm 5,7 km/h (1 Bft) N 360 15,4 C 14,8 km/h (3 Bft)
15.08.2015 11:25 20,0 C 25,2 C 72 % 1007,9 hPa 0,0 mm 5,7 km/h (1 Bft) NW 315 14,8 C 2,8 km/h (1 Bft)
15.08.2015 11:26 19,6 C 23,4 C 72 % 1007,9 hPa 0,0 mm 5,7 km/h (1 Bft) W 270 14,4 C 8,3 km/h (2 Bft)
15.08.2015 11:27 19,6 C 23,4 C 72 % 1007,9 hPa 0,0 mm 5,7 km/h (1 Bft) W 270 14,4 C 8,3 km/h (2 Bft)
15.08.2015 11:30 19,6 C 23,4 C 72 % 1007,9 hPa 0,0 mm 5,7 km/h (1 Bft) W 270 14,4 C 8,3 km/h (2 Bft)
15.08.2015 11:35 19,3 C 22,4 C 73 % 1008,1 hPa 0,0 mm 5,7 km/h (1 Bft) W 270 14,3 C 10,6 km/h (2 Bft)
15.08.2015 11:40 19,1 C 21,5 C 73 % 1008,1 hPa 0,0 mm 4,7 km/h (1 Bft) S-SW 202 14,1 C 0,0 km/h (0 Bft)
15.08.2015 11:45 19,0 C 21,2 C 73 % 1008,1 hPa 0,0 mm 3,9 km/h (1 Bft) W 270 14,0 C 6,2 km/h (2 Bft)
15.08.2015 11:50 18,9 C 21,1 C 73 % 1008,1 hPa 0,0 mm 2,8 km/h (1 Bft) W 270 13,9 C 8,5 km/h (2 Bft)
15.08.2015 11:55 19,1 C 21,2 C 73 % 1007,8 hPa 0,0 mm 3,4 km/h (1 Bft) W-NW 292 14,1 C 0,0 km/h (0 Bft)
15.08.2015 12:00 19,0 C 21,2 C 73 % 1007,8 hPa 0,0 mm 4,9 km/h (1 Bft) W-NW 292 14,0 C 6,5 km/h (2 Bft)
15.08.2015 12:05 19,0 C 21,2 C 73 % 1007,8 hPa 0,0 mm 4,9 km/h (1 Bft) W-SW 247 14,0 C 4,1 km/h (1 Bft)
15.08.2015 12:10 19,1 C 21,4 C 73 % 1007,8 hPa 0,0 mm 4,1 km/h (1 Bft) W-SW 247 14,1 C 9,3 km/h (2 Bft)
15.08.2015 12:15 19,1 C 21,3 C 73 % 1007,9 hPa 0,0 mm 4,1 km/h (1 Bft) W-NW 292 14,1 C 4,7 km/h (1 Bft)
15.08.2015 12:20 19,0 C 20,8 C 73 % 1007,9 hPa 0,0 mm 5,2 km/h (1 Bft) N-NW 337 14,0 C 5,7 km/h (1 Bft)
15.08.2015 12:25 18,8 C 20,4 C 74 % 1007,9 hPa 0,0 mm 5,2 km/h (1 Bft) W-NW 292 14,1 C 4,1 km/h (1 Bft)
15.08.2015 12:30 18,7 C 20,0 C 73 % 1007,9 hPa 0,0 mm 6,2 km/h (2 Bft) NW 315 13,8 C 6,5 km/h (2 Bft)
15.08.2015 12:35 18,6 C 19,9 C 73 % 1007,4 hPa 0,0 mm 6,0 km/h (2 Bft) N-NW 337 13,7 C 7,5 km/h (2 Bft)
15.08.2015 12:40 18,8 C 20,1 C 73 % 1007,4 hPa 0,0 mm 3,6 km/h (1 Bft) N-NO 22 13,9 C 0,0 km/h (0 Bft)
15.08.2015 12:45 19,0 C 20,5 C 73 % 1007,4 hPa 0,0 mm 3,1 km/h (1 Bft) N-NO 22 14,0 C 7,0 km/h (2 Bft)
15.08.2015 12:50 19,0 C 20,8 C 73 % 1007,4 hPa 0,0 mm 3,9 km/h (1 Bft) NW 315 14,0 C 5,4 km/h (1 Bft)
15.08.2015 12:55 19,0 C 21,2 C 73 % 1007,2 hPa 0,0 mm 4,7 km/h (1 Bft) NW 315 14,0 C 2,6 km/h (1 Bft)
15.08.2015 13:00 19,1 C 21,4 C 73 % 1007,2 hPa 0,0 mm 3,9 km/h (1 Bft) W 270 14,1 C 3,1 km/h (1 Bft)
15.08.2015 13:05 19,1 C 21,6 C 73 % 1007,2 hPa 0,0 mm 2,3 km/h (1 Bft) NW 315 14,1 C 0,0 km/h (0 Bft)
15.08.2015 13:10 19,0 C 21,2 C 73 % 1007,2 hPa 0,0 mm 2,1 km/h (1 Bft) NW 315 14,0 C 0,0 km/h (0 Bft)
15.08.2015 13:15 19,0 C 21,1 C 73 % 1007,2 hPa 0,0 mm 1,8 km/h (1 Bft) N-NO 22 14,0 C 6,2 km/h (2 Bft)
15.08.2015 13:20 19,0 C 20,8 C 72 % 1007,2 hPa 0,0 mm 1,8 km/h (1 Bft) N-NW 337 13,8 C 4,7 km/h (1 Bft)
15.08.2015 13:25 19,1 C 20,8 C 72 % 1007,2 hPa 0,0 mm 2,3 km/h (1 Bft) NW 315 13,9 C 0,0 km/h (0 Bft)
15.08.2015 13:30 19,3 C 21,3 C 72 % 1007,2 hPa 0,0 mm 2,1 km/h (1 Bft) S 180 14,1 C 3,6 km/h (1 Bft)
15.08.2015 13:35 19,6 C 21,9 C 72 % 1007,0 hPa 0,0 mm 3,1 km/h (1 Bft) N-NW 337 14,4 C 7,0 km/h (2 Bft)
15.08.2015 13:40 20,1 C 23,2 C 71 % 1007,0 hPa 0,0 mm 3,6 km/h (1 Bft) N-NO 22 14,7 C 3,4 km/h (1 Bft)
15.08.2015 13:45 20,1 C 23,3 C 71 % 1007,0 hPa 0,0 mm 2,6 km/h (1 Bft) N-NW 337 14,7 C 3,6 km/h (1 Bft)
15.08.2015 13:50 20,0 C 23,4 C 71 % 1007,0 hPa 0,0 mm 2,6 km/h (1 Bft) NW 315 14,6 C 4,1 km/h (1 Bft)
15.08.2015 13:55 20,0 C 23,1 C 70 % 1007,2 hPa 0,0 mm 3,6 km/h (1 Bft) W 270 14,4 C 0,0 km/h (0 Bft)
15.08.2015 14:00 20,0 C 22,9 C 71 % 1007,2 hPa 0,0 mm 3,4 km/h (1 Bft) NW 315 14,6 C 7,8 km/h (2 Bft)
15.08.2015 14:05 20,0 C 22,8 C 70 % 1007,2 hPa 0,0 mm 3,4 km/h (1 Bft) N-NW 337 14,4 C 7,0 km/h (2 Bft)
15.08.2015 14:10 20,2 C 23,5 C 70 % 1007,2 hPa 0,0 mm 4,4 km/h (1 Bft) W-NW 292 14,5 C 4,4 km/h (1 Bft)
15.08.2015 14:15 20,3 C 23,7 C 69 % 1006,9 hPa 0,0 mm 4,9 km/h (1 Bft) N-NW 337 14,4 C 5,4 km/h (1 Bft)
15.08.2015 14:20 20,6 C 24,2 C 69 % 1006,9 hPa 0,0 mm 5,2 km/h (1 Bft) NO 45 14,7 C 4,1 km/h (1 Bft)
15.08.2015 14:25 20,6 C 24,6 C 68 % 1006,9 hPa 0,0 mm 5,2 km/h (1 Bft) O-NO 67 14,5 C 0,0 km/h (0 Bft)
15.08.2015 14:30 20,9 C 25,7 C 68 % 1006,9 hPa 0,0 mm 5,4 km/h (1 Bft) NW 315 14,8 C 8,5 km/h (2 Bft)
15.08.2015 14:35 20,7 C 24,6 C 68 % 1006,9 hPa 0,0 mm 6,0 km/h (2 Bft) W-NW 292 14,6 C 9,8 km/h (2 Bft)
15.08.2015 14:40 20,3 C 23,1 C 68 % 1006,9 hPa 0,0 mm 6,7 km/h (2 Bft) NO 45 14,2 C 5,4 km/h (1 Bft)
15.08.2015 14:45 20,1 C 22,5 C 68 % 1006,9 hPa 0,0 mm 6,0 km/h (2 Bft) N 360 14,0 C 5,2 km/h (1 Bft)
15.08.2015 14:50 19,9 C 21,7 C 70 % 1006,9 hPa 0,0 mm 3,6 km/h (1 Bft) O-SO 112 14,3 C 0,0 km/h (0 Bft)
15.08.2015 14:55 19,7 C 21,4 C 70 % 1006,9 hPa 0,0 mm 1,8 km/h (1 Bft) SW 225 14,1 C 0,0 km/h (0 Bft)
15.08.2015 15:00 19,6 C 21,3 C 70 % 1006,9 hPa 0,0 mm 1,6 km/h (1 Bft) N-NO 22 14,0 C 7,5 km/h (2 Bft)
15.08.2015 15:05 19,7 C 21,4 C 70 % 1006,9 hPa 0,0 mm 3,1 km/h (1 Bft) N-NO 22 14,1 C 3,9 km/h (1 Bft)
15.08.2015 15:10 20,0 C 21,7 C 69 % 1006,9 hPa 0,0 mm 3,6 km/h (1 Bft) O-NO 67 14,1 C 4,1 km/h (1 Bft)
15.08.2015 15:15 20,0 C 21,9 C 69 % 1006,6 hPa 0,0 mm 2,8 km/h (1 Bft) W 270 14,1 C 0,0 km/h (0 Bft)
15.08.2015 15:20 20,1 C 22,2 C 70 % 1006,6 hPa 0,0 mm 1,3 km/h (1 Bft) O-NO 67 14,5 C 0,0 km/h (0 Bft)
15.08.2015 15:25 20,1 C 22,4 C 70 % 1006,6 hPa 0,0 mm 0,3 km/h (0 Bft) O-SO 112 14,5 C 0,0 km/h (0 Bft)
15.08.2015 15:30 20,3 C 22,9 C 69 % 1006,6 hPa 0,0 mm 0,0 km/h (0 Bft) N-NO 22 14,4 C 0,0 km/h (0 Bft)
15.08.2015 15:35 20,3 C 22,9 C 69 % 1006,6 hPa 0,0 mm 0,8 km/h (0 Bft) W 270 14,4 C 0,0 km/h (0 Bft)
15.08.2015 15:40 20,0 C 22,1 C 69 % 1006,6 hPa 0,0 mm 1,0 km/h (0 Bft) SW 225 14,1 C 0,0 km/h (0 Bft)
15.08.2015 15:45 19,8 C 21,7 C 69 % 1006,6 hPa 0,0 mm 0,5 km/h (0 Bft) SW 225 13,9 C 0,0 km/h (0 Bft)
15.08.2015 15:50 19,6 C 21,0 C 70 % 1006,6 hPa 0,0 mm 0,3 km/h (0 Bft) SW 225 14,0 C 0,0 km/h (0 Bft)
15.08.2015 15:55 19,4 C 20,2 C 70 % 1006,8 hPa 0,0 mm 1,3 km/h (1 Bft) S 180 13,8 C 4,1 km/h (1 Bft)
15.08.2015 16:00 18,8 C 18,8 C 72 % 1006,8 hPa 0,0 mm 4,4 km/h (1 Bft) S-SW 202 13,6 C 8,5 km/h (2 Bft)
15.08.2015 16:05 18,3 C 18,1 C 73 % 1006,8 hPa 0,0 mm 6,0 km/h (2 Bft) NW 315 13,4 C 6,2 km/h (2 Bft)
15.08.2015 16:10 17,8 C 17,6 C 78 % 1006,8 hPa 0,7 mm 3,1 km/h (1 Bft) O-NO 67 13,9 C 3,4 km/h (1 Bft)
15.08.2015 16:15 17,7 C 17,5 C 80 % 1006,6 hPa 0,0 mm 2,3 km/h (1 Bft) O 90 14,2 C 4,9 km/h (1 Bft)
15.08.2015 16:20 17,7 C 17,4 C 80 % 1006,6 hPa 0,7 mm 3,6 km/h (1 Bft) W-NW 292 14,2 C 0,0 km/h (0 Bft)
15.08.2015 16:25 17,7 C 17,4 C 80 % 1006,6 hPa 0,0 mm 4,1 km/h (1 Bft) S-SO 157 14,2 C 10,6 km/h (2 Bft)
15.08.2015 16:30 17,7 C 17,7 C 79 % 1006,6 hPa 0,7 mm 3,6 km/h (1 Bft) W-SW 247 14,0 C 0,0 km/h (0 Bft)
15.08.2015 16:35 17,9 C 18,1 C 79 % 1006,9 hPa 0,0 mm 2,8 km/h (1 Bft) SW 225 14,2 C 0,0 km/h (0 Bft)
15.08.2015 16:40 18,1 C 18,6 C 79 % 1006,9 hPa 0,0 mm 1,3 km/h (1 Bft) NW 315 14,4 C 4,1 km/h (1 Bft)
15.08.2015 16:45 18,3 C 18,9 C 80 % 1006,9 hPa 0,0 mm 1,6 km/h (1 Bft) S-SW 202 14,8 C 0,0 km/h (0 Bft)
15.08.2015 16:50 18,6 C 19,2 C 80 % 1006,9 hPa 0,0 mm 1,0 km/h (0 Bft) S-SW 202 15,1 C 5,7 km/h (1 Bft)
15.08.2015 16:55 18,6 C 19,0 C 80 % 1006,9 hPa 0,0 mm 0,8 km/h (0 Bft) W 270 15,1 C 0,0 km/h (0 Bft)
15.08.2015 17:00 18,7 C 19,1 C 80 % 1006,9 hPa 0,0 mm 0,8 km/h (0 Bft) W-SW 247 15,2 C 4,7 km/h (1 Bft)
15.08.2015 17:05 18,6 C 18,9 C 79 % 1006,9 hPa 0,0 mm 0,8 km/h (0 Bft) W 270 14,9 C 3,4 km/h (1 Bft)
15.08.2015 17:10 18,6 C 18,7 C 79 % 1006,9 hPa 0,0 mm 1,6 km/h (1 Bft) N-NO 22 14,9 C 10,1 km/h (2 Bft)
15.08.2015 17:15 18,1 C 18,0 C 79 % 1006,9 hPa 0,0 mm 5,4 km/h (1 Bft) W 270 14,4 C 11,9 km/h (2 Bft)
15.08.2015 17:20 17,3 C 17,2 C 80 % 1006,9 hPa 0,0 mm 10,4 km/h (2 Bft) W-NW 292 13,8 C 23,8 km/h (4 Bft)
15.08.2015 17:25 16,9 C 16,8 C 80 % 1006,9 hPa 0,0 mm 9,8 km/h (2 Bft) W-NW 292 13,4 C 15,5 km/h (3 Bft)
15.08.2015 17:26 16,3 C 16,2 C 79 % 1006,9 hPa 0,0 mm 8,8 km/h (2 Bft) NW 315 12,6 C 13,7 km/h (3 Bft)
15.08.2015 17:28 16,3 C 16,2 C 79 % 1006,9 hPa 0,0 mm 8,8 km/h (2 Bft) NW 315 12,6 C 13,7 km/h (3 Bft)
15.08.2015 17:30 16,3 C 16,2 C 79 % 1006,9 hPa 0,0 mm 8,8 km/h (2 Bft) NW 315 12,6 C 13,7 km/h (3 Bft)
15.08.2015 17:35 16,0 C 15,8 C 79 % 1007,4 hPa 0,0 mm 8,3 km/h (2 Bft) N-NW 337 12,4 C 11,7 km/h (2 Bft)
15.08.2015 17:40 16,0 C 15,8 C 80 % 1007,4 hPa 0,0 mm 7,5 km/h (2 Bft) W 270 12,5 C 13,5 km/h (3 Bft)
15.08.2015 17:45 15,8 C 15,7 C 80 % 1007,4 hPa 0,0 mm 6,5 km/h (2 Bft) W 270 12,4 C 9,1 km/h (2 Bft)
15.08.2015 17:50 15,7 C 15,7 C 80 % 1007,4 hPa 0,0 mm 5,2 km/h (1 Bft) S-SO 157 12,3 C 0,0 km/h (0 Bft)
15.08.2015 17:55 15,5 C 15,5 C 80 % 1007,3 hPa 0,0 mm 5,7 km/h (1 Bft) S 180 12,1 C 18,4 km/h (3 Bft)
15.08.2015 18:00 15,3 C 15,3 C 81 % 1007,3 hPa 0,0 mm 5,7 km/h (1 Bft) S-SW 202 12,1 C 8,5 km/h (2 Bft)
15.08.2015 18:05 14,9 C 14,8 C 81 % 1007,3 hPa 0,7 mm 6,2 km/h (2 Bft) S-SO 157 11,7 C 11,9 km/h (2 Bft)
15.08.2015 18:10 14,7 C 14,5 C 82 % 1007,3 hPa 0,0 mm 6,2 km/h (2 Bft) O-NO 67 11,7 C 10,1 km/h (2 Bft)
15.08.2015 18:15 14,6 C 14,4 C 83 % 1007,3 hPa 0,0 mm 5,7 km/h (1 Bft) N 360 11,7 C 2,6 km/h (1 Bft)
15.08.2015 18:20 14,6 C 14,4 C 83 % 1007,3 hPa 0,0 mm 6,2 km/h (2 Bft) N-NO 22 11,7 C 10,1 km/h (2 Bft)
15.08.2015 18:25 14,6 C 14,3 C 84 % 1007,3 hPa 0,0 mm 6,5 km/h (2 Bft) W-NW 292 11,9 C 9,8 km/h (2 Bft)
15.08.2015 18:30 14,6 C 14,3 C 84 % 1007,3 hPa 0,0 mm 5,2 km/h (1 Bft) W-SW 247 11,9 C 7,3 km/h (2 Bft)
15.08.2015 18:35 14,6 C 14,3 C 84 % 1007,3 hPa 0,0 mm 4,1 km/h (1 Bft) NW 315 11,9 C 8,3 km/h (2 Bft)
15.08.2015 18:40 14,5 C 14,3 C 84 % 1007,3 hPa 0,0 mm 2,8 km/h (1 Bft) W-NW 292 11,8 C 5,7 km/h (1 Bft)
15.08.2015 18:45 14,5 C 14,2 C 84 % 1007,3 hPa 0,0 mm 3,1 km/h (1 Bft) W 270 11,8 C 5,4 km/h (1 Bft)
15.08.2015 18:50 14,4 C 14,2 C 84 % 1007,3 hPa 0,0 mm 4,1 km/h (1 Bft) SW 225 11,7 C 6,2 km/h (2 Bft)
15.08.2015 18:55 14,4 C 14,1 C 85 % 1007,6 hPa 0,0 mm 4,4 km/h (1 Bft) NO 45 11,9 C 3,4 km/h (1 Bft)
15.08.2015 19:00 14,2 C 14,0 C 85 % 1007,6 hPa 0,7 mm 5,4 km/h (1 Bft) SW 225 11,7 C 10,6 km/h (2 Bft)
15.08.2015 19:05 14,0 C 13,8 C 85 % 1007,6 hPa 0,0 mm 4,7 km/h (1 Bft) N-NW 337 11,5 C 2,8 km/h (1 Bft)
15.08.2015 19:10 13,9 C 13,7 C 85 % 1007,6 hPa 1,4 mm 3,4 km/h (1 Bft) S 180 11,4 C 4,7 km/h (1 Bft)
15.08.2015 19:15 13,8 C 13,6 C 85 % 1007,6 hPa 0,0 mm 3,1 km/h (1 Bft) SW 225 11,3 C 10,1 km/h (2 Bft)
15.08.2015 19:20 13,8 C 13,6 C 85 % 1007,6 hPa 0,7 mm 3,1 km/h (1 Bft) W-SW 247 11,3 C 4,1 km/h (1 Bft)
15.08.2015 19:25 13,7 C 13,5 C 86 % 1007,6 hPa 0,7 mm 3,6 km/h (1 Bft) W 270 11,4 C 4,7 km/h (1 Bft)
15.08.2015 19:30 13,7 C 13,5 C 86 % 1007,6 hPa 0,7 mm 2,8 km/h (1 Bft) W-NW 292 11,4 C 0,0 km/h (0 Bft)
15.08.2015 19:35 13,7 C 13,5 C 86 % 1007,7 hPa 0,0 mm 1,8 km/h (1 Bft) W-SW 247 11,4 C 4,1 km/h (1 Bft)
15.08.2015 19:40 13,7 C 13,5 C 86 % 1007,7 hPa 0,7 mm 2,3 km/h (1 Bft) SW 225 11,4 C 6,0 km/h (2 Bft)
15.08.2015 19:45 13,7 C 13,5 C 86 % 1007,7 hPa 0,0 mm 4,7 km/h (1 Bft) SW 225 11,4 C 14,0 km/h (3 Bft)
15.08.2015 19:50 13,6 C 13,5 C 87 % 1007,7 hPa 0,7 mm 5,2 km/h (1 Bft) W-SW 247 11,5 C 2,6 km/h (1 Bft)
15.08.2015 19:55 13,5 C 13,4 C 87 % 1007,6 hPa 0,0 mm 3,9 km/h (1 Bft) S 180 11,4 C 2,8 km/h (1 Bft)
15.08.2015 20:00 13,5 C 13,4 C 87 % 1007,6 hPa 0,0 mm 1,6 km/h (1 Bft) SW 225 11,4 C 0,0 km/h (0 Bft)
15.08.2015 20:05 13,5 C 13,4 C 87 % 1007,6 hPa 0,7 mm 2,1 km/h (1 Bft) S 180 11,4 C 4,7 km/h (1 Bft)
15.08.2015 20:10 13,5 C 13,4 C 87 % 1007,6 hPa 0,7 mm 3,1 km/h (1 Bft) SW 225 11,4 C 5,2 km/h (1 Bft)
15.08.2015 20:15 13,5 C 13,4 C 87 % 1007,8 hPa 0,0 mm 3,9 km/h (1 Bft) NW 315 11,4 C 10,1 km/h (2 Bft)
15.08.2015 20:20 13,5 C 13,4 C 87 % 1007,8 hPa 0,0 mm 3,1 km/h (1 Bft) W-SW 247 11,4 C 5,7 km/h (1 Bft)
15.08.2015 20:25 13,5 C 13,4 C 87 % 1007,8 hPa 0,7 mm 2,8 km/h (1 Bft) W-SW 247 11,4 C 6,7 km/h (2 Bft)
15.08.2015 20:30 13,5 C 13,4 C 87 % 1007,8 hPa 0,0 mm 2,8 km/h (1 Bft) S 180 11,4 C 0,0 km/h (0 Bft)
15.08.2015 20:35 13,5 C 13,4 C 87 % 1008,0 hPa 0,0 mm 2,3 km/h (1 Bft) S 180 11,4 C 3,9 km/h (1 Bft)
15.08.2015 20:40 13,5 C 13,4 C 88 % 1008,0 hPa 0,0 mm 3,4 km/h (1 Bft) O-NO 67 11,6 C 8,8 km/h (2 Bft)
15.08.2015 20:45 13,5 C 13,4 C 88 % 1008,0 hPa 0,0 mm 3,9 km/h (1 Bft) NW 315 11,6 C 3,6 km/h (1 Bft)
15.08.2015 20:50 13,5 C 13,3 C 88 % 1008,0 hPa 0,0 mm 3,1 km/h (1 Bft) N 360 11,6 C 9,8 km/h (2 Bft)
15.08.2015 20:55 13,4 C 13,3 C 88 % 1008,1 hPa 0,0 mm 3,6 km/h (1 Bft) NW 315 11,5 C 9,8 km/h (2 Bft)
15.08.2015 21:00 13,4 C 13,3 C 88 % 1008,1 hPa 0,7 mm 3,6 km/h (1 Bft) S 180 11,5 C 2,6 km/h (1 Bft)
15.08.2015 21:05 13,5 C 13,3 C 88 % 1008,1 hPa 0,0 mm 3,4 km/h (1 Bft) N 360 11,6 C 3,9 km/h (1 Bft)
15.08.2015 21:10 13,5 C 13,3 C 88 % 1008,1 hPa 0,0 mm 3,6 km/h (1 Bft) W 270 11,6 C 3,1 km/h (1 Bft)
15.08.2015 21:15 13,5 C 13,3 C 88 % 1008,3 hPa 0,0 mm 3,6 km/h (1 Bft) S 180 11,6 C 6,2 km/h (2 Bft)
15.08.2015 21:20 13,5 C 13,3 C 88 % 1008,3 hPa 0,0 mm 2,8 km/h (1 Bft) S-SO 157 11,6 C 4,7 km/h (1 Bft)
15.08.2015 21:25 13,5 C 13,3 C 88 % 1008,3 hPa 0,0 mm 3,4 km/h (1 Bft) W-SW 247 11,6 C 7,0 km/h (2 Bft)
15.08.2015 21:30 13,5 C 13,3 C 88 % 1008,3 hPa 0,0 mm 3,6 km/h (1 Bft) S-SO 157 11,6 C 3,1 km/h (1 Bft)
15.08.2015 21:35 13,5 C 13,3 C 88 % 1008,4 hPa 0,0 mm 3,1 km/h (1 Bft) S 180 11,6 C 5,7 km/h (1 Bft)
15.08.2015 21:40 13,4 C 13,3 C 88 % 1008,4 hPa 0,0 mm 1,8 km/h (1 Bft) S-SW 202 11,5 C 3,6 km/h (1 Bft)
15.08.2015 21:45 13,4 C 13,2 C 88 % 1008,4 hPa 0,0 mm 2,1 km/h (1 Bft) N-NW 337 11,5 C 5,7 km/h (1 Bft)
15.08.2015 21:50 13,4 C 13,2 C 88 % 1008,4 hPa 0,0 mm 2,3 km/h (1 Bft) S-SO 157 11,5 C 3,6 km/h (1 Bft)
15.08.2015 21:55 13,4 C 13,3 C 88 % 1008,3 hPa 0,0 mm 1,8 km/h (1 Bft) S 180 11,5 C 0,0 km/h (0 Bft)
15.08.2015 22:00 13,4 C 13,3 C 88 % 1008,3 hPa 0,0 mm 1,6 km/h (1 Bft) W 270 11,5 C 5,4 km/h (1 Bft)
15.08.2015 22:05 13,4 C 13,3 C 88 % 1008,3 hPa 0,0 mm 1,0 km/h (0 Bft) W-SW 247 11,5 C 0,0 km/h (0 Bft)
15.08.2015 22:10 13,4 C 13,2 C 88 % 1008,3 hPa 0,0 mm 1,3 km/h (1 Bft) W-SW 247 11,5 C 7,3 km/h (2 Bft)
15.08.2015 22:15 13,4 C 13,2 C 88 % 1008,2 hPa 0,0 mm 1,3 km/h (1 Bft) N-NO 22 11,5 C 0,0 km/h (0 Bft)
15.08.2015 22:20 13,4 C 13,2 C 88 % 1008,2 hPa 0,0 mm 1,0 km/h (0 Bft) S 180 11,5 C 0,0 km/h (0 Bft)
15.08.2015 22:25 13,4 C 13,2 C 88 % 1008,2 hPa 0,0 mm 0,3 km/h (0 Bft) S-SO 157 11,5 C 0,0 km/h (0 Bft)
15.08.2015 22:30 13,4 C 13,2 C 88 % 1008,2 hPa 0,0 mm 0,8 km/h (0 Bft) SW 225 11,5 C 0,0 km/h (0 Bft)
15.08.2015 22:35 13,4 C 13,2 C 88 % 1008,2 hPa 0,0 mm 0,8 km/h (0 Bft) S-SO 157 11,5 C 0,0 km/h (0 Bft)
15.08.2015 22:40 13,4 C 13,2 C 88 % 1008,2 hPa 0,0 mm 0,8 km/h (0 Bft) W 270 11,5 C 0,0 km/h (0 Bft)
15.08.2015 22:45 13,4 C 13,2 C 88 % 1008,2 hPa 0,0 mm 0,8 km/h (0 Bft) SW 225 11,5 C 2,6 km/h (1 Bft)
15.08.2015 22:50 13,4 C 13,2 C 88 % 1008,2 hPa 0,0 mm 1,3 km/h (1 Bft) SW 225 11,5 C 6,2 km/h (2 Bft)
15.08.2015 22:55 13,4 C 13,2 C 88 % 1008,4 hPa 0,0 mm 2,3 km/h (1 Bft) SW 225 11,5 C 4,7 km/h (1 Bft)
15.08.2015 23:00 13,4 C 13,2 C 87 % 1008,4 hPa 0,0 mm 3,4 km/h (1 Bft) W-SW 247 11,3 C 12,4 km/h (3 Bft)
15.08.2015 23:05 13,4 C 13,2 C 87 % 1008,4 hPa 0,0 mm 5,2 km/h (1 Bft) SW 225 11,3 C 8,8 km/h (2 Bft)
15.08.2015 23:10 13,4 C 13,2 C 87 % 1008,4 hPa 0,0 mm 4,7 km/h (1 Bft) SW 225 11,3 C 3,1 km/h (1 Bft)
15.08.2015 23:15 13,4 C 13,2 C 87 % 1008,2 hPa 0,0 mm 2,6 km/h (1 Bft) W 270 11,3 C 3,1 km/h (1 Bft)
15.08.2015 23:20 13,3 C 13,1 C 87 % 1008,2 hPa 0,0 mm 0,8 km/h (0 Bft) N-NO 22 11,2 C 0,0 km/h (0 Bft)
15.08.2015 23:25 13,3 C 13,1 C 87 % 1008,2 hPa 0,0 mm 0,8 km/h (0 Bft) S 180 11,2 C 0,0 km/h (0 Bft)
15.08.2015 23:26 13,3 C 13,1 C 87 % 1008,2 hPa 0,0 mm 0,3 km/h (0 Bft) O-SO 112 11,2 C 0,0 km/h (0 Bft)
15.08.2015 23:29 13,3 C 13,1 C 87 % 1008,2 hPa 0,0 mm 0,3 km/h (0 Bft) O-SO 112 11,2 C 0,0 km/h (0 Bft)
15.08.2015 23:35 13,3 C 13,1 C 87 % 1008,4 hPa 0,0 mm 0,0 km/h (0 Bft) SW 225 11,2 C 0,0 km/h (0 Bft)
15.08.2015 23:40 13,2 C 13,1 C 87 % 1008,4 hPa 0,0 mm 0,0 km/h (0 Bft) S 180 11,1 C 0,0 km/h (0 Bft)
15.08.2015 23:45 13,2 C 13,1 C 87 % 1008,4 hPa 0,0 mm 0,0 km/h (0 Bft) W 270 11,1 C 0,0 km/h (0 Bft)
15.08.2015 23:50 13,2 C 13,1 C 87 % 1008,4 hPa 0,0 mm 0,3 km/h (0 Bft) S-SW 202 11,1 C 0,0 km/h (0 Bft)
15.08.2015 23:55 13,2 C 13,1 C 87 % 1008,3 hPa 0,0 mm 0,5 km/h (0 Bft) SW 225 11,1 C 0,0 km/h (0 Bft)
_ Min-Zeit 23:55 23:55 14:45 02:50 - 23:45 - - 23:55 23:55
Minimum _ 13,2 C 13,1 C 68 % 1006,1 hPa - 0,0 km/h (0 Bft) - - 11,1 C 0,0 km/h (0 Bft)
_ Max-Zeit 14:30 11:20 07:10 23:50 19:10 17:20 - - 10:55 17:20
Maximum _ 20,9 C 26,7 C 90 % 1008,4 hPa 1,4 mm 10,4 km/h
W-NW (2 Bft)
- - 15,7 C 23,8 km/h
W-NW (4 Bft)
Durchschnitt _ 15,9 C 16,6 C 83 % 1007,2 hPa #13,7 mm 2,6 km/h (1 Bft) W - 12,9 C 3,8 km/h (1 Bft)